OBJECT G, 60241

Orbit data source: Space-Track

You're viewing an Uncataloged Satellite

Recently launched and/or uncataloged satellites may have evolving metadata. Metadata may include but not limited to: Owner, Maufacturer, Bus, Motor, and Mission.

OBJECT G, 60241 is a satellite in LEO that was launched on Tue, 09 Jul 2024 UTC via an ARIANE 62 launch vehicle from the French Guiana (FRGUI). Unknown objects in Earth's orbit typically refer to objects detected orbiting the Earth but have not yet been identified or cataloged. These objects could be anything from previously untracked satellites, spent rocket stages, debris from satellite collisions, or even natural meteoroids temporarily captured by Earth's gravity.

Loading next visibility...
Identifier
60241, 2024-128G
Orbit
LEO
Country
Flag of TBDTBD
Related business
None
Manufacturer
Unknown
Mission
Commercial Technology
Bus & Motor
Unknown
Mass
Unknown
Launch date (UTC)
2024-07-09 (1 year ago)
Launch vehicle
ARIANE 62
Launch site
French Guiana (FRGUI)
Object type
Unknown
Shape & HBR
Box, 0.1 m
Radar Cross Section
0.035 m², Small (<0.1 m²)

Expand to show TLE details & history
Last TLE update: 11 hours ago

TLE from 11 hours ago
0 OBJECT G
1 60241U 24128G   25346.81031410  .00008587  00000-0  58867-3 0  9993
2 60241  61.9896 148.1754 0055845  96.6517 264.0935 15.05440601 78230
Epoch: 2025-12-12T19:26Z
TLE epoch observation values (Epoch: 2025-12-12T19:26:51.138Z)
Latitude
-0.00008°
Longitude
134.71569°
Altitude
556.122 km
Speed
7.582 km/s
True Right ascension
09h 52m 42s
True Declination
0° 00' 00"
Sunlit
Object was in daylight at epoch
Visualization orbit readout
Latitude
Unknown
Longitude
Unknown
Altitude
Unknown
Speed
Unknown
Apparent Right ascension
Unknown
Apparent Declination
Unknown
Sunlit
N/A
Visualization observer readout
Local Sidereal Time
05:22:59
Azimuth
Unknown
Elevation
Unknown
Doppler factor
Unknown
Orbital elements
Apogee altitude
587.768 km
Perigee altitude
510.397 km
Semi-major axis
6,927.219 km
Eccentricity
0.00558
Inclination
61.9896°
RAAN
148.1754°
Arg. of periapsis
96.6517°
True anomaly
263.45743°
Mean anomaly
264.0935°
Eccentric anomaly
263.77542°
Mean motion
3.76448 °/min
Orbital period
95.63 mins
BSTAR
0.00058867
Loading maneuver chart data...
Computing Atmospheric mass density...
Loading historical data...
Loading historical data...
Loading historical data...
Loading historical data...
Loading historical data...
Loading historical data...
Loading historical data...

Documentation

Showing up to 5 results
|